| time (UTC) | temp C | wind direction | speed KPH | gust KPH | rain 1hr cm | rain 24hr cm | rain mn cm | humidity % | barometer mb |
| 20260505093044 | 14 | 0 | 0.0 | 3.2 | 0.00 | 0.00 | 0.00 | 78 | 1016.1 |
| 20260505092538 | 14 | 0 | 0.0 | 3.2 | 0.00 | 0.00 | 0.00 | 78 | 1016.0 |
| 20260505092038 | 14 | 0 | 0.0 | 1.6 | 0.00 | 0.00 | 0.00 | 78 | 1016.0 |
| 20260505091543 | 14 | 0 | 0.0 | 3.2 | 0.00 | 0.00 | 0.00 | 78 | 1016.0 |
| 20260505091037 | 14 | 0 | 0.0 | 3.2 | 0.00 | 0.00 | 0.00 | 78 | 1015.9 |
| 20260505090538 | 14 | 202 | 0.0 | 3.2 | 0.00 | 0.00 | 0.00 | 78 | 1016.0 |
| 20260505085538 | 14 | 0 | 0.0 | 4.8 | 0.00 | 0.03 | 0.00 | 78 | 1016.1 |
| 20260505085038 | 14 | 0 | 1.6 | 4.8 | 0.00 | 0.03 | 0.00 | 78 | 1016.0 |
| 20260505084550 | 14 | 120 | 1.6 | 6.4 | 0.00 | 0.03 | 0.00 | 78 | 1016.0 |
| 20260505084038 | 14 | 157 | 0.0 | 6.4 | 0.00 | 0.03 | 0.00 | 78 | 1015.9 |
| 20260505083537 | 14 | 109 | 1.6 | 6.4 | 0.00 | 0.03 | 0.00 | 77 | 1015.9 |
| 20260505083055 | 14 | 113 | 1.6 | 4.8 | 0.00 | 0.03 | 0.00 | 77 | 1015.8 |
| 20260505082538 | 14 | 131 | 1.6 | 4.8 | 0.00 | 0.03 | 0.00 | 77 | 1015.8 |
| 20260505082038 | 14 | 113 | 1.6 | 3.2 | 0.00 | 0.03 | 0.00 | 77 | 1015.8 |
| 20260505081547 | 14 | 113 | 1.6 | 4.8 | 0.00 | 0.03 | 0.00 | 77 | 1015.9 |
| 20260505081038 | 14 | 104 | 0.0 | 4.8 | 0.00 | 0.03 | 0.00 | 77 | 1015.9 |
| 20260505080539 | 14 | 0 | 1.6 | 4.8 | 0.00 | 0.03 | 0.00 | 77 | 1016.0 |
| 20260505080053 | 14 | 119 | 0.0 | 3.2 | 0.00 | 0.03 | 0.00 | 77 | 1015.9 |
| 20260505075542 | 14 | 137 | 0.0 | 3.2 | 0.00 | 0.03 | 0.00 | 77 | 1015.8 |
| 20260505075039 | 14 | 0 | 0.0 | 3.2 | 0.00 | 0.03 | 0.00 | 77 | 1015.8 |
| 20260505074549 | 14 | 0 | 0.0 | 4.8 | 0.00 | 0.03 | 0.00 | 77 | 1015.7 |
| 20260505074038 | 13 | 112 | 1.6 | 4.8 | 0.00 | 0.03 | 0.00 | 77 | 1015.7 |
| 20260505073538 | 13 | 69 | 0.0 | 4.8 | 0.00 | 0.03 | 0.00 | 77 | 1015.7 |
| 20260505073059 | 13 | 0 | 0.0 | 4.8 | 0.00 | 0.03 | 0.00 | 77 | 1015.7 |
| 20260505072542 | 13 | 0 | 0.0 | 4.8 | 0.00 | 0.03 | 0.00 | 76 | 1015.6 |
| 20260505072039 | 13 | 134 | 0.0 | 4.8 | 0.00 | 0.03 | 0.00 | 76 | 1015.7 |
| 20260505071545 | 13 | 129 | 1.6 | 4.8 | 0.00 | 0.03 | 0.00 | 76 | 1015.7 |
| 20260505071038 | 14 | 0 | 0.0 | 1.6 | 0.00 | 0.03 | 0.00 | 76 | 1015.7 |
| 20260505070538 | 14 | 0 | 0.0 | 3.2 | 0.00 | 0.03 | 0.00 | 75 | 1015.7 |
| 20260505070046 | 14 | 0 | 0.0 | 3.2 | 0.00 | 0.03 | 0.00 | 75 | 1015.7 |
| 20260505065538 | 14 | 155 | 0.0 | 3.2 | 0.00 | 0.03 | 0.00 | 75 | 1015.6 |
| 20260505065038 | 14 | 0 | 0.0 | 3.2 | 0.00 | 0.03 | 0.00 | 75 | 1015.6 |
| 20260505064549 | 14 | 0 | 0.0 | 3.2 | 0.00 | 0.03 | 0.00 | 74 | 1015.6 |
| 20260505064037 | 14 | 0 | 0.0 | 3.2 | 0.00 | 0.03 | 0.00 | 74 | 1015.6 |
| 20260505063537 | 14 | 27 | 0.0 | 3.2 | 0.00 | 0.03 | 0.00 | 74 | 1015.7 |
| 20260505063048 | 14 | 0 | 0.0 | 1.6 | 0.00 | 0.03 | 0.00 | 73 | 1015.7 |
| 20260505062537 | 14 | 0 | 0.0 | 3.2 | 0.00 | 0.03 | 0.00 | 73 | 1015.8 |
| 20260505062037 | 15 | 82 | 0.0 | 3.2 | 0.00 | 0.03 | 0.00 | 73 | 1015.7 |
| 20260505061552 | 15 | 72 | 0.0 | 1.6 | 0.00 | 0.03 | 0.00 | 73 | 1015.8 |
| 20260505061038 | 15 | 0 | 0.0 | 4.8 | 0.00 | 0.03 | 0.00 | 72 | 1015.8 |
| 20260505060538 | 15 | 0 | 0.0 | 4.8 | 0.00 | 0.03 | 0.00 | 72 | 1015.9 |
| 20260505060049 | 15 | 110 | 0.0 | 4.8 | 0.00 | 0.03 | 0.00 | 72 | 1015.9 |
| 20260505055538 | 15 | 0 | 0.0 | 4.8 | 0.00 | 0.03 | 0.00 | 72 | 1015.9 |
| 20260505055038 | 15 | 0 | 0.0 | 3.2 | 0.00 | 0.03 | 0.00 | 72 | 1016.0 |
| 20260505054548 | 15 | 0 | 0.0 | 3.2 | 0.00 | 0.03 | 0.00 | 71 | 1016.0 |
| 20260505054038 | 15 | 0 | 0.0 | 3.2 | 0.00 | 0.03 | 0.00 | 71 | 1016.0 |
| 20260505053537 | 15 | 0 | 0.0 | 1.6 | 0.00 | 0.03 | 0.00 | 70 | 1016.0 |
| 20260505053102 | 15 | 0 | 0.0 | 1.6 | 0.00 | 0.03 | 0.00 | 70 | 1016.1 |
| 20260505052537 | 15 | 0 | 0.0 | 1.6 | 0.00 | 0.03 | 0.00 | 70 | 1016.1 |
| 20260505052038 | 15 | 0 | 0.0 | 1.6 | 0.00 | 0.03 | 0.00 | 70 | 1016.1 |
| 20260505051554 | 15 | 195 | 0.0 | 1.6 | 0.00 | 0.03 | 0.00 | 69 | 1016.1 |
| 20260505051039 | 16 | 205 | 0.0 | 3.2 | 0.00 | 0.03 | 0.00 | 69 | 1016.2 |
| 20260505050538 | 16 | 0 | 0.0 | 4.8 | 0.00 | 0.03 | 0.00 | 68 | 1016.2 |
| 20260505041548 | 16 | 0 | 0.0 | 3.2 | 0.00 | 0.03 | 0.00 | 66 | 1016.3 |
| 20260505041038 | 16 | 155 | 0.0 | 3.2 | 0.00 | 0.03 | 0.00 | 65 | 1016.2 |
| 20260505040538 | 16 | 0 | 0.0 | 4.8 | 0.00 | 0.03 | 0.00 | 65 | 1016.3 |
| 20260505040049 | 16 | 160 | 0.0 | 4.8 | 0.00 | 0.03 | 0.00 | 65 | 1016.3 |
| 20260505035538 | 17 | 151 | 1.6 | 4.8 | 0.00 | 0.03 | 0.03 | 64 | 1016.3 |
| 20260505035041 | 17 | 172 | 0.0 | 4.8 | 0.00 | 0.03 | 0.03 | 64 | 1016.3 |
| 20260505034546 | 17 | 0 | 1.6 | 4.8 | 0.00 | 0.03 | 0.03 | 63 | 1016.2 |
| 20260505034038 | 17 | 16 | 0.0 | 3.2 | 0.00 | 0.03 | 0.03 | 64 | 1016.2 |
| 20260505033540 | 17 | 0 | 0.0 | 3.2 | 0.00 | 0.03 | 0.03 | 63 | 1016.3 |
| 20260505033109 | 16 | 91 | 0.0 | 4.8 | 0.00 | 0.03 | 0.03 | 63 | 1016.3 |
| 20260505032537 | 16 | 153 | 0.0 | 6.4 | 0.00 | 0.03 | 0.03 | 63 | 1016.3 |
| 20260505032038 | 16 | 147 | 1.6 | 6.4 | 0.00 | 0.03 | 0.03 | 63 | 1016.3 |
| 20260505031549 | 16 | 0 | 0.0 | 4.8 | 0.00 | 0.03 | 0.03 | 63 | 1016.3 |
| 20260505031040 | 16 | 0 | 1.6 | 4.8 | 0.00 | 0.03 | 0.03 | 63 | 1016.2 |
| 20260505030538 | 16 | 151 | 0.0 | 4.8 | 0.00 | 0.03 | 0.03 | 64 | 1016.2 |
| 20260505030046 | 16 | 134 | 0.0 | 4.8 | 0.00 | 0.03 | 0.03 | 62 | 1016.2 |
| 20260505025538 | 16 | 183 | 1.6 | 4.8 | 0.00 | 0.03 | 0.03 | 63 | 1016.3 |
| 20260505025040 | 16 | 0 | 0.0 | 3.2 | 0.00 | 0.03 | 0.03 | 61 | 1016.2 |
| 20260505024544 | 16 | 0 | 0.0 | 3.2 | 0.00 | 0.03 | 0.03 | 60 | 1016.2 |
| 20260505024038 | 16 | 0 | 0.0 | 1.6 | 0.00 | 0.03 | 0.03 | 59 | 1016.1 |
| 20260505023538 | 16 | 148 | 0.0 | 0.0 | 0.00 | 0.03 | 0.03 | 59 | 1016.1 |
| 20260505023059 | 16 | 0 | 0.0 | 0.0 | 0.00 | 0.03 | 0.03 | 59 | 1016.1 |
| 20260505022538 | 16 | 0 | 0.0 | 0.0 | 0.00 | 0.03 | 0.03 | 59 | 1015.9 |
| 20260505022040 | 16 | 0 | 0.0 | 0.0 | 0.00 | 0.03 | 0.03 | 58 | 1015.9 |
| 20260505021552 | 16 | 0 | 0.0 | 0.0 | 0.00 | 0.03 | 0.03 | 57 | 1015.9 |
| 20260505021038 | 16 | 0 | 0.0 | 0.0 | 0.00 | 0.03 | 0.03 | 57 | 1015.9 |
| 20260505020538 | 17 | 0 | 0.0 | 0.0 | 0.00 | 0.03 | 0.03 | 57 | 1015.8 |
| 20260505020051 | 17 | 0 | 0.0 | 1.6 | 0.00 | 0.03 | 0.03 | 57 | 1015.8 |
| 20260505015538 | 17 | 0 | 0.0 | 1.6 | 0.00 | 0.03 | 0.03 | 56 | 1015.7 |
| 20260505015040 | 17 | 0 | 0.0 | 1.6 | 0.00 | 0.03 | 0.03 | 56 | 1015.7 |
| 20260505014542 | 17 | 0 | 0.0 | 0.0 | 0.00 | 0.03 | 0.03 | 55 | 1015.7 |
| 20260505014037 | 17 | 0 | 0.0 | 0.0 | 0.00 | 0.03 | 0.03 | 55 | 1015.6 |
| 20260505013537 | 17 | 0 | 0.0 | 0.0 | 0.00 | 0.03 | 0.03 | 53 | 1015.6 |
| 20260505013053 | 17 | 0 | 0.0 | 0.0 | 0.00 | 0.03 | 0.03 | 53 | 1015.5 |
| 20260505012538 | 17 | 0 | 0.0 | 0.0 | 0.00 | 0.03 | 0.03 | 51 | 1015.5 |
| 20260505012038 | 17 | 0 | 0.0 | 0.0 | 0.00 | 0.03 | 0.03 | 50 | 1015.4 |
| 20260505011541 | 17 | 0 | 0.0 | 0.0 | 0.00 | 0.03 | 0.03 | 50 | 1015.3 |
| 20260505011039 | 18 | 0 | 0.0 | 0.0 | 0.00 | 0.03 | 0.03 | 51 | 1015.3 |
| 20260505010538 | 18 | 0 | 0.0 | 0.0 | 0.00 | 0.03 | 0.03 | 49 | 1015.2 |
| 20260505010044 | 18 | 0 | 0.0 | 1.6 | 0.00 | 0.03 | 0.03 | 48 | 1015.2 |
| 20260505005538 | 18 | 0 | 0.0 | 1.6 | 0.00 | 0.03 | 0.03 | 49 | 1015.1 |
| 20260505005038 | 18 | 0 | 0.0 | 0.0 | 0.00 | 0.03 | 0.03 | 47 | 1015.1 |
| 20260505004549 | 18 | 0 | 0.0 | 1.6 | 0.00 | 0.03 | 0.03 | 47 | 1015.1 |
| 20260505004037 | 19 | 0 | 0.0 | 1.6 | 0.00 | 0.03 | 0.03 | 46 | 1014.9 |
| 20260505003537 | 19 | 0 | 0.0 | 0.0 | 0.00 | 0.03 | 0.03 | 45 | 1014.8 |
| 20260505003044 | 20 | 0 | 0.0 | 0.0 | 0.00 | 0.03 | 0.03 | 45 | 1014.9 |
| 20260505002537 | 20 | 0 | 0.0 | 0.0 | 0.00 | 0.03 | 0.03 | 51 | 1014.7 |
| 20260505002037 | 20 | 0 | 0.0 | 0.0 | 0.00 | 0.03 | 0.03 | 44 | 1014.7 |
| 20260505001542 | 20 | 0 | 0.0 | 0.0 | 0.00 | 0.03 | 0.03 | 43 | 1014.6 |
| 20260505001038 | 21 | 0 | 0.0 | 0.0 | 0.00 | 0.03 | 0.03 | 42 | 1014.6 |
| 20260505000541 | 21 | 0 | 0.0 | 0.0 | 0.00 | 0.03 | 0.03 | 42 | 1014.7 |
| 20260505000045 | 21 | 0 | 0.0 | 0.0 | 0.00 | 0.03 | 0.03 | 42 | 1014.6 |
| 20260504235538 | 21 | 0 | 0.0 | 1.6 | 0.00 | 0.03 | 0.03 | 41 | 1014.5 |
| 20260504235039 | 21 | 0 | 0.0 | 1.6 | 0.00 | 0.03 | 0.03 | 42 | 1014.5 |
| 20260504234612 | 21 | 0 | 0.0 | 1.6 | 0.00 | 0.03 | 0.03 | 40 | 1014.4 |
| 20260504234038 | 21 | 0 | 0.0 | 1.6 | 0.00 | 0.03 | 0.03 | 37 | 1014.4 |
| 20260504233538 | 22 | 0 | 0.0 | 3.2 | 0.00 | 0.03 | 0.03 | 34 | 1014.4 |
| 20260504233043 | 22 | 0 | 0.0 | 4.8 | 0.00 | 0.03 | 0.03 | 34 | 1014.4 |
| 20260504232539 | 22 | 0 | 0.0 | 4.8 | 0.00 | 0.03 | 0.03 | 35 | 1014.3 |
| 20260504232038 | 22 | 0 | 0.0 | 3.2 | 0.00 | 0.03 | 0.03 | 35 | 1014.3 |
| 20260504231552 | 22 | 168 | 0.0 | 3.2 | 0.00 | 0.03 | 0.03 | 34 | 1014.3 |
| 20260504231038 | 23 | 0 | 0.0 | 3.2 | 0.00 | 0.03 | 0.03 | 40 | 1014.3 |
| 20260504230538 | 23 | 0 | 0.0 | 6.4 | 0.00 | 0.03 | 0.03 | 38 | 1014.2 |
| 20260504230043 | 23 | 160 | 0.0 | 6.4 | 0.00 | 0.03 | 0.03 | 38 | 1014.2 |
| 20260504225539 | 23 | 154 | 1.6 | 6.4 | 0.00 | 0.03 | 0.03 | 34 | 1014.3 |
| 20260504225040 | 23 | 157 | 1.6 | 6.4 | 0.00 | 0.03 | 0.03 | 34 | 1014.3 |
| 20260504224542 | 23 | 125 | 1.6 | 9.7 | 0.00 | 0.03 | 0.03 | 34 | 1014.1 |
| 20260504224038 | 23 | 0 | 1.6 | 9.7 | 0.00 | 0.03 | 0.03 | 35 | 1014.2 |
| 20260504223538 | 23 | 146 | 1.6 | 6.4 | 0.00 | 0.03 | 0.03 | 35 | 1014.2 |
| 20260504223047 | 24 | 157 | 1.6 | 4.8 | 0.00 | 0.03 | 0.03 | 35 | 1014.2 |
| 20260504222539 | 24 | 0 | 0.0 | 8.0 | 0.00 | 0.03 | 0.03 | 35 | 1014.2 |
| 20260504222037 | 24 | 143 | 1.6 | 8.0 | 0.00 | 0.03 | 0.03 | 33 | 1014.2 |
| 20260504221605 | 24 | 156 | 1.6 | 4.8 | 0.00 | 0.03 | 0.03 | 34 | 1014.1 |
| 20260504221038 | 24 | 153 | 1.6 | 6.4 | 0.00 | 0.03 | 0.03 | 34 | 1014.1 |
| 20260504220538 | 24 | 191 | 1.6 | 6.4 | 0.00 | 0.03 | 0.03 | 32 | 1014.1 |
| 20260504220050 | 24 | 173 | 0.0 | 6.4 | 0.00 | 0.03 | 0.03 | 32 | 1014.1 |
| 20260504215538 | 25 | 72 | 0.0 | 6.4 | 0.00 | 0.03 | 0.03 | 32 | 1014.1 |
| 20260504215038 | 25 | 167 | 0.0 | 8.0 | 0.00 | 0.03 | 0.03 | 34 | 1014.1 |
| 20260504214556 | 25 | 175 | 3.2 | 8.0 | 0.00 | 0.03 | 0.03 | 32 | 1014.1 |
| 20260504214038 | 25 | 193 | 1.6 | 6.4 | 0.00 | 0.03 | 0.03 | 35 | 1014.0 |
| 20260504213538 | 25 | 195 | 1.6 | 6.4 | 0.00 | 0.03 | 0.03 | 34 | 1014.1 |
| 20260504213101 | 25 | 168 | 1.6 | 6.4 | 0.00 | 0.03 | 0.03 | 31 | 1014.1 |
| 20260504212538 | 25 | 129 | 1.6 | 6.4 | 0.00 | 0.03 | 0.03 | 33 | 1014.1 |
| 20260504212041 | 25 | 119 | 1.6 | 6.4 | 0.00 | 0.03 | 0.03 | 31 | 1014.2 |
| 20260504211547 | 25 | 158 | 1.6 | 6.4 | 0.00 | 0.03 | 0.03 | 30 | 1014.0 |
| 20260504211038 | 26 | 153 | 1.6 | 6.4 | 0.00 | 0.03 | 0.03 | 30 | 1014.2 |
| 20260504210538 | 26 | 17 | 1.6 | 9.7 | 0.00 | 0.03 | 0.03 | 30 | 1014.1 |
| 20260504210056 | 26 | 209 | 3.2 | 9.7 | 0.00 | 0.03 | 0.03 | 28 | 1014.2 |
| 20260504205539 | 26 | 207 | 1.6 | 8.0 | 0.00 | 0.03 | 0.03 | 28 | 1014.3 |
| 20260504205041 | 26 | 176 | 1.6 | 11.3 | 0.00 | 0.03 | 0.03 | 28 | 1014.3 |
| 20260504204625 | 26 | 193 | 1.6 | 11.3 | 0.00 | 0.03 | 0.03 | 27 | 1014.4 |
| 20260504204037 | 26 | 105 | 3.2 | 11.3 | 0.00 | 0.03 | 0.03 | 28 | 1014.3 |
| 20260504203542 | 27 | 206 | 1.6 | 8.0 | 0.00 | 0.03 | 0.03 | 29 | 1014.4 |
| 20260504203048 | 27 | 126 | 3.2 | 8.0 | 0.00 | 0.03 | 0.03 | 26 | 1014.5 |
| 20260504202538 | 27 | 151 | 1.6 | 8.0 | 0.00 | 0.03 | 0.03 | 29 | 1014.6 |
| 20260504202042 | 27 | 320 | 1.6 | 9.7 | 0.00 | 0.03 | 0.03 | 29 | 1014.5 |
| 20260504201546 | 27 | 124 | 3.2 | 9.7 | 0.00 | 0.03 | 0.03 | 30 | 1014.5 |
| 20260504201039 | 27 | 0 | 1.6 | 8.0 | 0.00 | 0.03 | 0.03 | 28 | 1014.6 |
| 20260504200538 | 27 | 177 | 1.6 | 8.0 | 0.00 | 0.03 | 0.03 | 31 | 1014.6 |
| 20260504200042 | 27 | 142 | 3.2 | 8.0 | 0.00 | 0.03 | 0.03 | 26 | 1014.7 |
| 20260504195538 | 27 | 141 | 3.2 | 8.0 | 0.00 | 0.03 | 0.03 | 25 | 1014.7 |
| 20260504195041 | 27 | 145 | 3.2 | 6.4 | 0.00 | 0.03 | 0.03 | 26 | 1014.7 |
| 20260504194552 | 27 | 124 | 3.2 | 6.4 | 0.00 | 0.03 | 0.03 | 29 | 1014.8 |
| 20260504194038 | 27 | 120 | 1.6 | 6.4 | 0.00 | 0.03 | 0.03 | 32 | 1014.9 |
| 20260504193537 | 27 | 162 | 3.2 | 6.4 | 0.00 | 0.03 | 0.03 | 29 | 1015.1 |
| 20260504193046 | 27 | 102 | 3.2 | 6.4 | 0.00 | 0.03 | 0.03 | 28 | 1015.1 |
| 20260504192538 | 26 | 212 | 3.2 | 6.4 | 0.00 | 0.03 | 0.03 | 30 | 1015.1 |
| 20260504192038 | 26 | 154 | 1.6 | 4.8 | 0.00 | 0.03 | 0.03 | 31 | 1015.1 |
| 20260504191545 | 26 | 0 | 1.6 | 6.4 | 0.00 | 0.03 | 0.03 | 29 | 1015.2 |
| 20260504191038 | 26 | 0 | 1.6 | 6.4 | 0.00 | 0.03 | 0.03 | 36 | 1015.3 |
| 20260504190538 | 26 | 0 | 1.6 | 6.4 | 0.00 | 0.03 | 0.03 | 30 | 1015.5 |
| 20260504190059 | 26 | 139 | 3.2 | 6.4 | 0.00 | 0.03 | 0.03 | 33 | 1015.4 |
| 20260504185538 | 26 | 99 | 1.6 | 4.8 | 0.00 | 0.03 | 0.03 | 33 | 1015.5 |
| 20260504185038 | 26 | 178 | 1.6 | 8.0 | 0.00 | 0.03 | 0.03 | 37 | 1015.6 |
| 20260504184601 | 25 | 104 | 1.6 | 9.7 | 0.00 | 0.03 | 0.03 | 35 | 1015.7 |
| 20260504184038 | 25 | 138 | 3.2 | 9.7 | 0.00 | 0.03 | 0.03 | 35 | 1015.8 |
| 20260504183538 | 25 | 145 | 1.6 | 4.8 | 0.00 | 0.03 | 0.03 | 40 | 1015.9 |
| 20260504183058 | 25 | 127 | 1.6 | 4.8 | 0.00 | 0.03 | 0.03 | 33 | 1015.9 |
| 20260504182541 | 25 | 195 | 1.6 | 8.0 | 0.00 | 0.03 | 0.03 | 31 | 1016.0 |
| 20260504182038 | 25 | 0 | 1.6 | 8.0 | 0.00 | 0.03 | 0.03 | 34 | 1016.1 |
| 20260504181550 | 25 | 0 | 0.0 | 6.4 | 0.00 | 0.03 | 0.03 | 35 | 1016.1 |
| 20260504181038 | 25 | 158 | 1.6 | 6.4 | 0.00 | 0.03 | 0.03 | 35 | 1016.2 |
| 20260504180538 | 25 | 94 | 1.6 | 6.4 | 0.00 | 0.03 | 0.03 | 38 | 1016.2 |
| 20260504180048 | 25 | 195 | 1.6 | 8.0 | 0.00 | 0.03 | 0.03 | 39 | 1016.3 |
| 20260504175537 | 24 | 155 | 0.0 | 8.0 | 0.00 | 0.03 | 0.03 | 40 | 1016.3 |
| 20260504175042 | 24 | 189 | 1.6 | 8.0 | 0.00 | 0.03 | 0.03 | 39 | 1016.3 |
| 20260504174551 | 24 | 0 | 1.6 | 9.7 | 0.00 | 0.03 | 0.03 | 37 | 1016.3 |
| 20260504174038 | 24 | 359 | 1.6 | 9.7 | 0.00 | 0.03 | 0.03 | 33 | 1016.3 |
| 20260504173538 | 24 | 328 | 1.6 | 9.7 | 0.00 | 0.03 | 0.03 | 37 | 1016.3 |
| 20260504173052 | 23 | 126 | 1.6 | 11.3 | 0.00 | 0.03 | 0.03 | 34 | 1016.4 |
| 20260504172538 | 23 | 117 | 1.6 | 11.3 | 0.00 | 0.03 | 0.03 | 38 | 1016.5 |
| 20260504172038 | 23 | 19 | 3.2 | 14.5 | 0.00 | 0.03 | 0.03 | 37 | 1016.5 |
| 20260504171547 | 23 | 330 | 4.8 | 14.5 | 0.00 | 0.03 | 0.03 | 38 | 1016.6 |
| 20260504171038 | 23 | 0 | 1.6 | 11.3 | 0.00 | 0.03 | 0.03 | 34 | 1016.7 |
| 20260504170538 | 23 | 98 | 4.8 | 11.3 | 0.00 | 0.03 | 0.03 | 41 | 1016.8 |
| 20260504151039 | 20 | 118 | 1.6 | 11.3 | 0.00 | 0.03 | 0.03 | 46 | 1018.0 |
| 20260504150540 | 20 | 353 | 3.2 | 11.3 | 0.00 | 0.03 | 0.03 | 48 | 1018.0 |
| 20260504141037 | 18 | 326 | 3.2 | 11.3 | 0.00 | 0.03 | 0.03 | 54 | 1018.1 |
| 20260504140538 | 18 | 1 | 1.6 | 11.3 | 0.00 | 0.03 | 0.03 | 56 | 1018.1 |
| 20260504130538 | 14 | 0 | 0.0 | 3.2 | 0.00 | 0.03 | 0.03 | 75 | 1017.6 |
| 20260504110538 | 8 | 0 | 0.0 | 0.0 | 0.00 | 0.05 | 0.03 | 90 | 1017.5 |
| 20260504100537 | 8 | 0 | 0.0 | 0.0 | 0.00 | 0.05 | 0.03 | 88 | 1017.5 |